Home > Weather > Tehran > Past weeks

Flag for Iran Past Weather in Tehran, Iran — Yesterday and Last 2 Weeks

Now
75 °F

Sunny.


Feels Like: 76 °F
Forecast: 60 / 84 °F
Wind: 9 mph from West

Location: Tehran-Mehrabad

Current Time: May 31, 2016 at 8:43:06 AM

Latest Report: May 31, 2016 at 8:00 AM


Visibility: 10 mi

Pressure: 29.83 "Hg (26.05 "Hg at 1179m altitude)

Humidity: 19%

Dew Point: 30 °F

Location of TehranLocation

Past Weather in Tehran — Graph

°F

Tehran Temperature Yesterday

Maximum temperature yesterday: 90 °F (at 3:30 PM)
Minimum temperature yesterday: 75 °F (at 5:30 AM)
Average temperature yesterday: 84 °F

High & Low Weather Summary for the Past Weeks

 TemperatureHumidityPressure
High95 °F (May 16, 4:30 PM)56% (May 21, 4:30 AM)30.07 "Hg (May 21, 4:30 AM)
Low59 °F (May 22, 4:30 AM)6% (May 28, 6:00 PM)29.71 "Hg (May 25, 3:30 AM)
Average81 °F20%29.90 "Hg
* Reported May 16 7:30 AM — May 31 7:30 AM, Tehran, Weather by CustomWeather, © 2016

Note: Actual official high and low records may vary slightly from our data, if they occured in-between our weather recording intervals... More about our weather records

Advertising

Tehran Weather History for the Previous 24 Hours

Scroll right to see more
 ConditionsComfort  
Time TempWeatherWind HumidityBarometerVisibility
7:30 AM
Tue, May 31
73 °FSunny.12 mph20%29.83 "Hg10 mi
7:00 AM72 °FClear.7 mph23%29.83 "Hg10 mi
6:30 AM70 °FClear.12 mph23%29.83 "Hg10 mi
6:00 AM68 °FClear.9 mph23%29.83 "Hg10 mi
5:30 AM70 °FClear.9 mph23%29.80 "Hg10 mi
4:30 AM72 °FClear.9 mph20%29.80 "Hg10 mi
4:00 AM72 °FClear.7 mph17%29.80 "Hg10 mi
3:30 AM72 °FClear.5 mph17%29.80 "Hg10 mi
2:00 AM75 °FClear.14 mph14%29.77 "Hg10 mi
1:30 AM79 °FClear.12 mph11%29.77 "Hg10 mi
1:00 AM79 °FClear.12 mph11%29.77 "Hg10 mi
12:30 AM81 °FClear.7 mph11%29.80 "Hg10 mi
12:00 AM81 °FClear.12 mph10%29.80 "Hg10 mi
11:30 PM
Mon, May 30
81 °FClear.12 mph10%29.80 "Hg10 mi
11:00 PM81 °FClear.12 mph10%29.80 "Hg10 mi
10:30 PM81 °FClear.12 mph10%29.80 "Hg10 mi
10:00 PM82 °FPassing clouds.12 mph10%29.80 "HgN/A
9:30 PM84 °FPassing clouds.14 mph8%29.80 "HgN/A
9:00 PM84 °FPassing clouds.12 mph7%29.80 "HgN/A
8:30 PM84 °FPassing clouds.16 mph7%29.77 "HgN/A
8:00 PM86 °FPassing clouds.7 mph8%29.77 "HgN/A
7:30 PM86 °FPassing clouds.12 mph8%29.77 "HgN/A
7:00 PM88 °FScattered clouds.12 mph8%29.77 "HgN/A
6:30 PM88 °FScattered clouds.12 mph7%29.77 "HgN/A
6:00 PM90 °FScattered clouds.14 mph7%29.77 "HgN/A
5:30 PM88 °FScattered clouds.9 mph8%29.77 "HgN/A
5:00 PM90 °FScattered clouds.7 mph7%29.77 "HgN/A
4:30 PM88 °FScattered clouds.12 mph8%29.80 "HgN/A
4:00 PM88 °FScattered clouds.9 mph8%29.80 "HgN/A
3:30 PM90 °FScattered clouds.14 mph7%29.80 "HgN/A
3:00 PM88 °FPassing clouds.9 mph8%29.83 "HgN/A
2:30 PM88 °FPassing clouds.16 mph8%29.83 "HgN/A
2:00 PM88 °FPassing clouds.12 mph9%29.83 "HgN/A
1:30 PM86 °FPassing clouds.16 mph9%29.86 "HgN/A
1:00 PM86 °FPassing clouds.16 mph9%29.86 "HgN/A
12:30 PM86 °FPassing clouds.16 mph9%29.86 "HgN/A
12:00 PM86 °FSunny.14 mph9%29.86 "Hg10 mi
11:30 AM86 °FSunny.16 mph8%29.86 "Hg10 mi
11:00 AM84 °FSunny.14 mph9%29.86 "Hg10 mi
10:30 AM84 °FSunny.14 mph10%29.89 "Hg10 mi
10:00 AM84 °FSunny.12 mph9%29.89 "Hg10 mi
9:30 AM84 °FSunny.16 mph9%29.89 "Hg10 mi
9:00 AM84 °FSunny.12 mph8%29.89 "Hg10 mi
8:30 AM84 °FSunny.12 mph9%29.89 "Hg10 mi
8:00 AM82 °FSunny.7 mph9%29.89 "Hg10 mi
Weather by CustomWeather, © 2016

See weather overviewHow to use our weather pages